This demonstration page uses our WeatherBlox Daily Observations layout. Learn more.

Left ArrowRight Arrow

Hourly Observations for June 3, 2017

Temp ( °F °C ) Dew Point ( °F °C ) Humidity (%) Winds ( mph kmh ) Pressure ( in mb ) Visibility ( mi km ) Precip ( " mm )
12:59 am 00:59 Clear 66 18.9 55 12.8 68 68 Calm 30.06 1018 10 16 0.00 0.00
1:59 am 01:59 Clear 65 18.3 56 13.3 73 73 SW 3 6 30.06 1018 10 16 0.00 0.00
2:59 am 02:59 Clear 65 18.3 56 13.3 73 73 SW 3 6 30.04 1017 10 16 0.00 0.00
3:59 am 03:59 Clear 64 17.8 56 13.3 75 75 Calm 30.04 1017 10 16 0.00 0.00
4:59 am 04:59 Clear 63 17.2 56 13.3 78 78 Calm 30.04 1017 10 16 0.00 0.00
5:59 am 05:59 Mostly Cloudy 63 17.2 58 14.4 84 84 Calm 30.05 1018 9 14 0.00 0.00
6:59 am 06:59 Partly Cloudy 68 20 62 16.7 81 81 Calm 30.06 1018 9 14 0.00 0.00
7:59 am 07:59 Partly Cloudy 73 22.8 61 16.1 66 66 SSW 3 6 30.07 1018 10 16 0.00 0.00
8:59 am 08:59 Mostly Sunny 76 24.4 61 16.1 60 60 SSW 8 13 30.07 1018 10 16 0.00 0.00
9:59 am 09:59 Mostly Sunny 79 26.1 58 14.4 49 49 SSW 9 15 30.06 1018 10 16 0.00 0.00
10:59 am 10:59 Sunny 81 27.2 58 14.4 45 45 VRB 7 11 30.05 1018 10 16 0.00 0.00
11:59 am 11:59 Mostly Sunny 82 28 59 15 45 45 W 8 13 30.03 1017 10 16 0.00 0.00
12:59 pm 12:59 Mostly Sunny 83 28.3 55 12.8 38 38 W 8 13 30.02 1017 10 16 0.00 0.00
1:59 pm 13:59 Mostly Sunny 85 29.4 55 12.8 36 36 W 8 13 30.01 1016 10 16 0.00 0.00
2:59 pm 14:59 Mostly Sunny 87 30.6 55 12.8 34 34 NW 12 19 29.99 1016 10 16 0.00 0.00
3:59 pm 15:59 Mostly Sunny 87 30.6 48 8.9 26 26 NW 10 17 29.98 1015 10 16 0.00 0.00
4:59 pm 16:59 Mostly Sunny 87 30.6 50 10 28 28 NW 8 13 29.98 1015 10 16 0.00 0.00
5:59 pm 17:59 Mostly Sunny 86 30 49 9.4 28 28 NNW 13 20 29.98 1015 10 16 0.00 0.00
6:59 pm 18:59 Mostly Sunny 84 28.9 46 7.8 27 27 WNW 9 15 29.98 1015 10 16 0.00 0.00
7:59 pm 19:59 Partly Cloudy 81 27.2 46 7.8 29 29 NW 9 15 29.98 1015 10 16 0.00 0.00
8:59 pm 20:59 Partly Cloudy 74 23.3 53 11.7 48 48 Calm 30.00 1016 10 16 0.00 0.00
9:59 pm 21:59 Partly Cloudy 71 21.7 56 13.3 59 59 ESE 3 6 30.02 1017 10 16 0.00 0.00
10:59 pm 22:59 Mostly Clear 73 22.8 62 16.7 69 69 E 9 15 30.03 1017 10 16 0.00 0.00
11:59 pm 23:59 Mostly Clear 71 21.7 58 14.4 63 63 ESE 8 13 30.04 1017 10 16 0.00 0.00

Powered by AerisWeather